Location: Madingley
(52.2167°N, 0.0500°E)
Time: 12:32:04
(UTC+00:00)

Cosmos 2227 Rocket - Pass Details

Date: 15 May 2026
Orbit: 838 x 844 km, 71.0° (Epoch: 8 June)

Event Time Altitude Azimuth Distance (km) Brightness Sun altitude
Exits shadow 22:55:57 12° 111° (ESE) 2,347 4.2 -17.5°
Maximum altitude 22:57:25 13° 95° (E) 2,273 4.2 -17.6°
Drops below altitude 10° 22:59:47 10° 70° (ENE) 2,471 4.7 -17.7°
Sets 23:03:42 0° 44° (NE) 3,413 5.8 -17.8°
